Weather History for CWWE - September, 2012

Change the Weather History Date:

Thursday, September 13, 2012

  Actual Average Record
Temperature  
Mean Temperature 58 °F -  
Max Temperature 64 °F - - ()
Min Temperature 53 °F - - ()
Degree Days  
Heating Degree Days 6    
Growing Degree Days 8 (Base 50)    
Moisture  
Dew Point 57 °F    
Average Humidity 93    
Maximum Humidity 100    
Minimum Humidity 79    
Precipitation  
Precipitation 0.00 in - - ()
Sea Level Pressure  
Sea Level Pressure 30.37 in    
Wind  
Wind Speed 8 mph ()    
Max Wind Speed 20 mph    
Max Gust Speed -    
T = Trace of Precipitation, MM = Missing Value Source: Averaged Metar Reports

Daily Weather History Graph

Daily Weather History Graph

Search for Another Location

Airport or City:

Trip Planner

Search our weather history database for the weather conditions in past years. The results will help you decide how hot, cold, wet, or windy it might be!

Date:

Astronomy

Sep. 13, 2012 Rise Set
Actual Time 6:56 AM ADT 7:31 PM ADT
Civil Twilight 6:26 AM ADT 8:00 PM ADT
Nautical Twilight 5:52 AM ADT 8:35 PM ADT
Astronomical Twilight 5:16 AM ADT 9:10 PM ADT
Moon 4:06 AM ADT (9/13) 5:55 PM ADT (9/13)
Length of Visible Light 13h 33m
Length of Day
12h 35m
Waning Crescent, 7% of the Moon is Illuminated
Sep 13
Waning Crescent
Sep 15
New
Sep 22
First Quarter
Sep 30
Full
Oct 8
Last Quarter

Hourly Weather History & Observations

Time (ADT) Temp. Dew Point Humidity Pressure Visibility Wind Dir Wind Speed Gust Speed Precip Events Conditions
12:00 AM 57 °F 56 °F 96% 30.38 in - WSW 8.1 mph - -  
12:00 AM 56.8 °F 56.1 °F 97% 30.38 in - WSW 8.1 mph - N/A   Unknown
1:00 AM 57.0 °F 56.8 °F 99% 30.38 in - SW 8.1 mph - N/A   Unknown
2:00 AM 57.9 °F 57.7 °F 99% 30.39 in - WSW 8.1 mph - N/A   Unknown
3:00 AM 55 °F 54 °F 97% 30.38 in - WSW 4.6 mph - -  
3:00 AM 54.7 °F 54.3 °F 99% 30.38 in - WSW 4.6 mph - N/A   Unknown
4:00 AM 56.3 °F 55.9 °F 99% 30.38 in - SSW 6.9 mph - N/A   Unknown
5:00 AM 57.0 °F 56.1 °F 97% 30.39 in - WSW 6.9 mph - N/A   Unknown
6:00 AM 54 °F 54 °F 100% 30.40 in - WSW 5.8 mph - -  
6:00 AM 54.5 °F 54.0 °F 98% 30.40 in - WSW 5.8 mph - N/A   Unknown
7:00 AM 53.8 °F 53.2 °F 98% 30.40 in - SW 5.8 mph - N/A   Unknown
8:00 AM 56.7 °F 55.9 °F 97% 30.40 in - West 6.9 mph - N/A   Unknown
9:00 AM 59 °F 58 °F 94% 30.40 in - WSW 10.4 mph - -  
9:00 AM 58.8 °F 57.7 °F 96% 30.40 in - WSW 10.4 mph - N/A   Unknown
10:00 AM 59.7 °F 58.6 °F 96% 30.41 in - SW 8.1 mph - N/A   Unknown
11:00 AM 63.1 °F 59.4 °F 87% 30.41 in - WSW 10.4 mph - N/A   Unknown
12:00 PM 64 °F 61 °F 85% 30.40 in - SSW 8.1 mph - -  
12:00 PM 63.7 °F 60.6 °F 90% 30.40 in - SSW 8.1 mph - N/A   Unknown
1:00 PM 63.9 °F 59.0 °F 84% 30.39 in - SSW 15.0 mph - N/A   Unknown
2:00 PM 64.0 °F 59.0 °F 84% 30.38 in - SSW 15.0 mph - N/A   Unknown
3:00 PM 64 °F 59 °F 79% 30.35 in - SSW 18.4 mph - -  
3:00 PM 63.7 °F 59.2 °F 85% 30.35 in - SSW 18.4 mph - N/A   Unknown
4:00 PM 63.1 °F 58.5 °F 85% 30.34 in - SSW 19.6 mph - N/A   Unknown
5:00 PM 62.4 °F 58.5 °F 87% 30.34 in - SSW 17.3 mph - N/A   Unknown
6:00 PM 61 °F 58 °F 86% 30.33 in - SSW 16.1 mph - -  
6:00 PM 61.0 °F 57.9 °F 90% 30.33 in - SSW 16.1 mph - N/A   Unknown
7:00 PM 59.0 °F 57.0 °F 93% 30.33 in - SSW 11.5 mph - N/A   Unknown
8:00 PM 58.1 °F 56.5 °F 94% 30.33 in - SW 9.2 mph - N/A   Unknown
9:00 PM 56 °F 55 °F 95% 30.34 in - SW 4.6 mph - -  
9:00 PM 56.1 °F 54.9 °F 96% 30.34 in - SW 4.6 mph - N/A   Unknown
10:00 PM 54.3 °F 53.1 °F 95% 30.34 in - WSW 5.8 mph - N/A   Unknown
11:00 PM 56.3 °F 55.6 °F 97% 30.33 in - SW 6.9 mph - N/A   Unknown